This is the latest recevied weather packets stored in our database for station/object VK5TRM-14. If no packets are shown the sender has not sent any weather packets the latest 10 day(s).
| Time | Temp. | Humidity | Pressure | Rain* | Wind** | Luminosity | Snow |
|---|---|---|---|---|---|---|---|
| 1777698005 | 22.22° C | 59% | 1010.3 hPa | 0 mm | - | - | - |
| 1777697105 | 22.22° C | 59% | 1010.3 hPa | 0 mm | - | - | - |
| 1777696205 | 25° C | 41% | 1010.2 hPa | 0 mm | - | - | - |
| 1777695305 | 25° C | 41% | 1010.2 hPa | 0 mm | - | - | - |
| 1777694406 | 26.11° C | 36% | 1010.3 hPa | 0 mm | - | - | - |
| 1777693506 | 26.11° C | 36% | 1010.3 hPa | 0 mm | - | - | - |
| 1777692606 | 26.11° C | 35% | 1010.6 hPa | 0 mm | - | - | - |
| 1777691705 | 26.11° C | 35% | 1010.6 hPa | 0 mm | - | - | - |
| 1777690805 | 27.22° C | 33% | 1010.8 hPa | 0 mm | - | - | - |
| 1777689905 | 27.22° C | 33% | 1010.8 hPa | 0 mm | - | - | - |
| 1777689005 | 27.78° C | 32% | 1011.3 hPa | 0 mm | - | - | - |
| 1777688105 | 27.78° C | 32% | 1011.3 hPa | 0 mm | - | - | - |
| 1777687205 | 27.22° C | 33% | 1011.6 hPa | 0 mm | - | - | - |
| 1777686305 | 27.22° C | 33% | 1011.6 hPa | 0 mm | - | - | - |
| 1777685405 | 26.67° C | 34% | 1011.9 hPa | 0 mm | - | - | - |
| 1777684505 | 26.67° C | 34% | 1011.9 hPa | 0 mm | - | - | - |
| 1777683605 | 26.11° C | 36% | 1012.2 hPa | 0 mm | - | - | - |
| 1777682705 | 26.11° C | 36% | 1012.2 hPa | 0 mm | - | - | - |
| 1777681805 | 25° C | 37% | 1012.4 hPa | 0 mm | - | - | - |
| 1777680906 | 25° C | 37% | 1012.4 hPa | 0 mm | - | - | - |
| 1777680005 | 24.44° C | 38% | 1012.9 hPa | 0 mm | - | - | - |
| 1777679105 | 24.44° C | 38% | 1012.9 hPa | 0 mm | - | - | - |
| 1777678205 | 23.33° C | 42% | 1013.1 hPa | 0 mm | - | - | - |
| 1777677305 | 23.33° C | 42% | 1013.1 hPa | 0 mm | - | - | - |
| 1777676404 | 21.11° C | 47% | 1013.2 hPa | 0 mm | - | - | - |
* Rain since midnight (hover to see other rain measurements)
** Current wind speed in m/s (hover to see current wind gust speed)